User: anonymous   Login
Location: Unspecified
(0.0000°N, 0.0000°E)
Time: 13:39:16
(UTC+01:00)
Language:

CZ-2C R/B - Orbit

View from above orbital plane
View from above orbital plane
View from above satellite
View from above satellite

Ground track
Ground track

The orbit data is extracted from the following two-line orbital elements,

1 28480U 04046B   14329.06508341  .00000216  00000-0  96869-4 0  4943
2 28480 098.1106 112.8587 0143712 106.1299 019.1461 14.25392385521009
Epoch (UTC): 25 November 2014 01:33:43
Eccentricity: 0.0143712
inclination: 98.1106°
perigee height: 704 km
apogee height: 910 km
right ascension of ascending node: 112.8587°
argument of perigee: 106.1299°
revolutions per day: 14.25392385
mean anomaly at epoch: 19.1461°
orbit number at epoch: 52100

The dashed part of the orbit path shows where the satellite is in the earth's shadow,  

DLR